This is the latest recevied weather packets stored in our database for station/object KE0FIN. If no packets are shown the sender has not sent any weather packets the latest 10 day(s).
| Time | Temp. | Humidity | Pressure | Rain* | Wind** | Luminosity | Snow |
|---|---|---|---|---|---|---|---|
| 1777232395 | 16.11° C | 95% | 1057.4 hPa | 3.05 mm | - | 38 W/m² | - |
| 1777232091 | 17.22° C | 95% | 1057.2 hPa | 3.05 mm | - | 62 W/m² | - |
| 1777231789 | 17.78° C | 95% | 1057 hPa | 3.05 mm | - | 39 W/m² | - |
| 1777231485 | 18.89° C | 95% | 1057 hPa | 1.78 mm | - | 28 W/m² | - |
| 1777231182 | 18.89° C | 95% | 1057.1 hPa | 0 mm | - | 94 W/m² | - |
| 1777230877 | 18.89° C | 94% | 1057.1 hPa | 0 mm | - | 69 W/m² | - |
| 1777230573 | 19.44° C | 93% | 1057.2 hPa | 0 mm | - | 81 W/m² | - |
| 1777230269 | 19.44° C | 92% | 1057 hPa | 0 mm | - | 89 W/m² | - |
| 1777229966 | 19.44° C | 92% | 1057.2 hPa | 0 mm | - | 113 W/m² | - |
| 1777229662 | 19.44° C | 91% | 1057 hPa | 0 mm | - | 121 W/m² | - |
| 1777229359 | 19.44° C | 90% | 1057.2 hPa | 0 mm | - | 152 W/m² | - |
| 1777229057 | 19.44° C | 88% | 1057.2 hPa | 0 mm | - | 30 W/m² | - |
| 1777228754 | 19.44° C | 87% | 1057.2 hPa | 0 mm | - | 20 W/m² | - |
| 1777228448 | 19.44° C | 87% | 1057.2 hPa | 0 mm | - | 20 W/m² | - |
| 1777228144 | 19.44° C | 87% | 1057.3 hPa | 0 mm | - | 17 W/m² | - |
| 1777227843 | 19.44° C | 87% | 1057.2 hPa | 0 mm | - | 11 W/m² | - |
| 1777227540 | 19.44° C | 87% | 1057.2 hPa | 0 mm | - | 15 W/m² | - |
| 1777227235 | 19.44° C | 87% | 1057.2 hPa | 0 mm | - | 18 W/m² | - |
| 1777226933 | 19.44° C | 86% | 1057.3 hPa | 0 mm | - | 20 W/m² | - |
| 1777226631 | 19.44° C | 86% | 1057.4 hPa | 0 mm | - | 31 W/m² | - |
| 1777226327 | 19.44° C | 86% | 1057.3 hPa | 0 mm | - | 41 W/m² | - |
| 1777226023 | 19.44° C | 85% | 1057.2 hPa | 0 mm | - | 52 W/m² | - |
| 1777225719 | 19.44° C | 85% | 1056.7 hPa | 0 mm | - | 56 W/m² | - |
| 1777225416 | 20° C | 85% | 1056.7 hPa | 0 mm | - | 44 W/m² | - |
| 1777225113 | 20° C | 84% | 1056.6 hPa | 0 mm | - | 59 W/m² | - |
* Rain latest hour (hover to see other rain measurements)
** Current wind speed in m/s (hover to see current wind gust speed)